Regional Weather Roundup
Issued by NWS Grand Forks, ND

Home | Current Version | Previous Version | Graphics & Text | Print | Product List | Glossary On
Versions: 1 2 3 4 5 6 7 8 9 10 11 12 13 14 15 16 17 18 19 20 21 22 23 24 25 26 27 28 29 30 31 32 33 34 35 36 37 38 39 40 41 42 43 44 45 46 47 48 49 50
234
ASUS43 KFGF 200731
RWRFGF
PRAIRIE TO PINES  WEATHER ROUNDUP
NATIONAL WEATHER SERVICE EASTERN NORTH DAKOTA/GRAND FORKS ND
200 AM CDT WED SEP 20 2017

 **SATELLITE DATA USED TO AUGMENT SKY COVER AT AUTOMATED STATIONS**
 *****  WEATHER ACROSS EASTERN NORTH DAKOTA  *****

CITY           SKY/WX    TMP DP  RH WIND       PRES   REMARKS
GRAND FORKS    CLOUDY    63  62  97 SW7       29.43F
GRAND FRKS AFB CLOUDY    61  61 100 NW3       29.42F
DEVILS LAKE    CLOUDY    54  50  87 W22       29.50R
FARGO          CLOUDY    63  62  97 S6        29.48R
WAHPETON ARPT  FAIR      61  57  88 W3        29.49F
$$

 ***** WEATHER ACROSS CENTRAL AND WESTERN NORTH DAKOTA  *****

CITY           SKY/WX    TMP DP  RH WIND       PRES   REMARKS
BISMARCK       FAIR      50  45  83 W12       29.61R
MINOT          CLOUDY    53  48  83 SW7       29.54R
JAMESTOWN      FAIR      56  52  86 W15G23    29.51R
MINOT AFB      CLOUDY    51  48  89 NW6       29.52R
GARRISON         N/A     48  42  80 W10       29.57R
WILLISTON      FAIR      44  40  85 SW3       29.59R
DICKINSON      FAIR      44  40  85 W12       29.62S
HETTINGER      FAIR      42  38  85 W8        29.69R
$$

 *****  OTHER AIRPORT OBSERVATIONS IN OUR AREA  *****

CITY           SKY/WX    TMP DP  RH WIND       PRES   REMARKS
WALHALLA       FAIR     N/A N/A N/A W3        29.39F
GRAFTON AIRPOR PTSUNNY   59  59 100 CALM      29.42F
VALLEY CITY AR DRIZZLE   57  57 100 W15G21    29.53R
CANDO          LGT RAIN  52  52 100 W18G30    29.51R
CAVALIER APRT  FAIR      61  59  94 W8        29.39F
GWINNER        MOSUNNY   59  57  94 W7        29.52R
SHEYENNE NWR     N/A     58  58 100 CALM      29.95S
ROLLA          CLOUDY    52  52 100 W13       29.49R
 ***** THE ABOVE OBSERVATIONS ARE NON NWS ARE NOT QUALITY
       CONTROLLED AND MAY MIS-REPORT RAIN FOR SNOW...
$$

  *****  WEATHER ACROSS NORTHERN MINNESOTA  *****

CITY           SKY/WX    TMP DP  RH WIND       PRES   REMARKS
FLAG ISLAND    TSTM      61  61 100 SE22      29.41F
WARROAD        RAIN      63  57  82 S7        29.43F
ROSEAU         LGT RAIN  63  57  82 SE6       29.43R
HALLOCK        DRIZZLE   63  63 100 SW8       29.41F
THF RVR FALLS  LGT RAIN  61  61 100 S9        29.47R
BAUDETTE       HVY RAIN  61  61 100 SE15      29.51F
WASKISH        RAIN      61  61 100 S5        29.54F
CROOKSTON      CLOUDY    63  63 100 S7        29.46R
STEPHEN NDAWN    N/A    N/A N/A N/A S3          N/A
GREENBUSH NDAW   N/A     61  61 100 SW5         N/A
$$
  *****  WEATHER ACROSS CENTRAL AND WEST MINNESOTA  *****

CITY           SKY/WX    TMP DP  RH WIND       PRES   REMARKS
FOSSTON        LGT RAIN  59  57  94 S7        29.49R
BEMIDJI        TSTM      59  59  99 E12       29.49F
PARK RAPIDS    LGT RAIN  61  59  93 E7        29.44F
ELBOW LAKE     PTSUNNY   63  63  99 SW7       29.54R
WADENA         FAIR      61  61 100 S12       29.53R
DETROIT LAKES  LGT RAIN  63  61  94 W5        29.50R
MOORHEAD       MOCLDY    63  61  94 CALM      29.47F
FERGUS FALLS   FAIR      63  63 100 NW6       29.49S
MORRIS MN      FAIR      63  63 100 W6        29.55R
STAPLES        LGT RAIN  57  57 100 S14       29.56R
$$
  *****  WEATHER ELSEWHERE ACROSS MINNESOTA  *****

CITY           SKY/WX    TMP DP  RH WIND       PRES   REMARKS
DULUTH         MOCLDY    62  59  90 SE17      29.68F
INTRNTL FALLS  TSTM      62  60  93 S8G24     29.59R FOG
ELY            FAIR      63  55  77 SE17G26   29.68F
CLOQUET        LGT RAIN  63  57  82 E12       29.63F
WHEATON        MOCLDY    64  61  88 CALM      29.55R
BRAINERD       LGT RAIN  65  64  97 SE9       29.53F
HIBBING        MOCLDY    64  57  78 SE23G35   29.58F
ALEXANDRIA     CLOUDY    61  60  97 S18G24    29.57R
SAINT CLOUD    TSTM      63  63 100 S12G26    29.61S FOG
MINNEAPOLIS    CLOUDY    71  65  81 SE15      29.62F
$$

  *****  WEATHER ACROSS SOUTH DAKOTA  *****

CITY           SKY/WX    TMP DP  RH WIND       PRES   REMARKS
SIOUX FALLS    CLOUDY    63  63 100 NW3       29.64R
BROOKINGS      MOCLDY    61  54  77 CALM      29.62S
WATERTOWN      MOCLDY    60  55  83 NE3       29.58R
HURON          MOCLDY    59  55  87 W10       29.63R
SISSETON         N/A     61  58  90 NW6       29.52R
ABERDEEN       CLOUDY    58  53  84 W13       29.61R
MITCHELL       CLOUDY    61  55  81 W7        29.67R
PIERRE         FAIR      56  44  64 NW15      29.67R
MOBRIDGE       FAIR      52  46  80 NW14G23   29.62R
RAPID CITY     NOT AVBL
$$

  *****  SOME WEATHER IN NEARBY STATES *****

CITY           SKY/WX    TMP DP  RH WIND       PRES   REMARKS
GLASGOW MT     CLOUDY    46  37  71 SW5       29.57S
GREAT FALLS MT FAIR      44  30  57 SW22G32   29.63R
CHEYENNE WY    MOCLDY    45  30  55 W18G29    29.92R
SCOTTSBLUFF NE MOCLDY    56  31  38 W18G25    29.85R
OMAHA NE       MOCLDY    77  69  76 S18       29.60R
DES MOINES IA  FAIR      75  67  76 S13       29.69S
DAVENPORT IA   FAIR      69  63  81 SE10      29.85F
CHICAGO IL     FAIR      63  61  93 SE5       29.90F
EAU CLAIRE WI  FAIR      67  61  81 SE18G26   29.76F
LA CROSSE WI   FAIR      71  64  78 SE10      29.79R
$$

  *****  SOME NATIONAL WEATHER *****

CITY           SKY/WX    TMP DP  RH WIND       PRES   REMARKS
LA GUARDIA NY  CLOUDY    72  65  78 N12       29.81F
RALEIGH NC     FAIR      64  63  96 CALM      29.96F
ATLANTA GA     FAIR      71  69  93 NW5       30.01R
NEW ORLEANS LA MOCLDY    78  75  90 S3        29.96F
OKLAHOMA CITY  FAIR      73  60  63 S10       29.78R
ALBUQUERQUE NM FAIR      70  32  24 SW10      30.01R
SALT LAKE CITY MOCLDY    50  43  77 CALM      29.94S
LOS ANGELES CA FAIR      66  62  87 S5        29.89S
BOISE ID       FAIR      48  40  73 SE12      29.86S
SEATTLE WA     MOCLDY    53  47  79 SE3       29.71F
$$

*** WEATHER ACROSS MANITOBA...SASKATCHEWAN AND ONTARIO ***
                ***ONTARIO***

CITY           SKY/WX    TMP DP  RH WIND       PRES   REMARKS
GERALDTON      CLEAR     46  46 100 E5        29.96F
THUNDER BAY    PTCLDY    55  54  94 E7        29.86F
SIOUX LOOKOUT  CLOUDY    57  52  82 SE9G20    29.69F
TORONTO        MOCLDY    68  63  83 NE5       30.00F
BIG TROUT LK   CLOUDY    52  45  76 SE7G17    29.91F
PICKLE LAKE    NOT AVBL
DRYDEN         CLOUDY    61  55  82 SE22G32   29.61F
KENORA         TSTM      59  57  94 SE21G31   29.52R
$$
                *** MANITOBA***

CITY           SKY/WX    TMP DP  RH WIND       PRES   REMARKS
BRANDON        CLOUDY    54  50  87 W14       29.42F
DAUPHIN        PTCLDY    54  50  87 W10G18    29.35R
ISLAND LAKE    NOT AVBL
PILOT MOUND      N/A     54  52  94 W6          N/A
THE PAS        RAIN      57  55  94 E16G25    29.32F
THOMPSON       CLOUDY    50  39  66 E13G24    29.68F
WINNIPEG       CLOUDY    61  61 100 SE9       29.35F
LYNN LAKE      LGT RAIN  46  41  81 E17G26    29.67F
CHURCHILL      CLOUDY    41  37  87 E9        30.07F
GILLAM         CLOUDY    45  39  81 E8G18     29.89F
$$
                ***SASKATCHEWAN***

CITY           SKY/WX    TMP DP  RH WIND       PRES   REMARKS
ESTEVAN        CLOUDY    48  45  87 SW9       29.52S
KINDERSLEY     CLEAR     32  30  93 SE6       29.47F
LLOYDMINSTER   CLEAR     32  32 100 W7        29.41F
PRINCE ALBERT  CLOUDY    46  43  87 W14G22    29.35S
REGINA         CLOUDY    43  39  87 W9        29.49R
YORKTON        LGT RAIN  48  45  87 W2        29.40F
N. BATTLEFORD  CLEAR     36  32  87 W8        29.44F
LA RONGE       LGT RAIN  48  46  93 NE21G33   29.35F
SASKATOON      MOCLDY    39  37  93 W9        29.44S
SWIFT CURRENT  CLEAR     36  27  69 S9        29.49S
$$
NOTE: THESE ARE AUTOMATED STATIONS WITH LIMITED QUALITY CONTROL
      "FAIR" INDICATES FEW OR NO CLOUDS BELOW 12,000 FEET WITH NO
      SIGNIFICANT WEATHER AND/OR OBSTRUCTIONS TO VISIBILITY.
      SKY/WX - SKY CONDITION AND SIGNIFICANT WEATHER.
      TMP - AIR TEMPERATURE.    DP   - DEWPOINT TEMPERATURE.
      RH  - RELATIVE HUMIDITY.  PRES - PRESSURE.
      HX  - HEAT INDEX.         WCI  - WIND CHILL INDEX.
$




USA.gov is the U.S. government's official web portal to all federal, state and local government web resources and services.